Regional Weather Roundup
Issued by NWS Little Rock, AR

Home | Current Version | Previous Version | Graphics & Text | Print | Product List | Glossary On
Versions: 1 2 3 4 5 6 7 8 9 10 11 12 13 14 15 16 17 18 19 20 21 22 23 24 25 26 27 28 29 30 31 32 33 34 35 36 37 38 39 40 41 42 43 44 45 46 47 48
000
ASUS44 KLZK 280305
RWRLZK

WEATHER ROUNDUP FOR ARKANSAS
NATIONAL WEATHER SERVICE LITTLE ROCK AR
900 PM CST THU NOV 27 2014

NOTE: "FAIR" INDICATES FEW OR NO CLOUDS BELOW 12,000 FEET WITH NO
SIGNIFICANT WEATHER AND/OR OBSTRUCTIONS TO VISIBILITY.

ARZ001-003-010-029-280400-
NORTHWEST ARKANSAS

CITY           SKY/WX    TMP DP  RH WIND       PRES   REMARKS
FAYETTEVILLE   CLEAR     30  24  78 CALM      30.35F
FORT SMITH     CLEAR     37  26  64 E5        30.40S
HARRISON       FAIR      32  23  69 SE3       30.38F
BENTONVILLE    CLEAR     34  19  55 S7        30.35F WCI  28
ROGERS         CLEAR     34  23  64 SE7       30.35F WCI  28
SILOAM SPGS    CLEAR     36  18  48 S6        30.35F
HIGHFILL       CLEAR     34  21  59 S6        30.34F WCI  29
SPRINGDALE     CLEAR     36  21  55 SE5       30.37F
$$

ARZ004-005-016-280400-
NORTH CENTRAL ARKANSAS

CITY           SKY/WX    TMP DP  RH WIND       PRES   REMARKS
BATESVILLE     CLEAR     36  25  64 CALM      30.45R
FLIPPIN        CLEAR     30  21  69 CALM      30.41F
MTN HOME       CLEAR     35  22  58 SE3       30.40S
$$

ARZ040-041-280400-
WEST CENTRAL ARKANSAS

CITY           SKY/WX    TMP DP  RH WIND       PRES   REMARKS
MENA           CLEAR     37  30  75 CALM      30.41S
MOUNT IDA      CLEAR     34  28  79 CALM      30.40S
$$

ARZ009-017-025-026-028-280400-
NORTHEAST ARKANSAS

CITY           SKY/WX    TMP DP  RH WIND       PRES   REMARKS
CORNING        FAIR      32  32 100 SE8       30.47R WCI  25
JONESBORO      CLEAR     32  30  92 CALM      30.46S
NEWPORT        CLEAR     35  32  89 S5        30.47S WCI  31
WALNUT RIDGE     N/A     34  27  75 S6        30.45S VSB<1/4 WCI  29
BLYTHEVILLE    CLEAR     41  28  60 SE9       30.47F
$$

ARZ022-023-033-042-044-280400-
CENTRAL ARKANSAS

CITY           SKY/WX    TMP DP  RH WIND       PRES   REMARKS
LITTLE ROCK    PTCLDY    36  28  73 S3        30.47S
N LITTLE ROCK  PTCLDY    38  31  77 S5        30.47S
JACKSONVILLE   CLEAR     31  27  84 CALM      30.46R
SEARCY         CLEAR     31  28  89 CALM      30.48R
HOT SPRINGS    CLEAR     34  28  79 E3        30.45S
RUSSELLVILLE   CLEAR     32  28  85 CALM      30.43S
CLINTON        FAIR      30  28  93 CALM      30.47S
$$

ARZ036-280400-
EAST ARKANSAS

CITY           SKY/WX    TMP DP  RH WIND       PRES   REMARKS
WEST MEMPHIS   CLEAR     34  29  82 E5        30.46F WCI  30
$$

ARZ050-053-066-070-073-280400-
SOUTHWEST ARKANSAS

CITY           SKY/WX    TMP DP  RH WIND       PRES   REMARKS
ARKADELPHIA    FAIR      34  34 100 CALM      30.47F
CAMDEN         CLEAR     32  30  93 CALM      30.47F
TEXARKANA      CLEAR     41  31  67 E5        30.44S
EL DORADO      CLEAR     35  32  88 CALM      30.46F
DE QUEEN       CLEAR     35  33  92 CALM      30.42R
$$

ARZ056-057-069-280400-
SOUTHEAST ARKANSAS

CITY           SKY/WX    TMP DP  RH WIND       PRES   REMARKS
PINE BLUFF     CLEAR     35  30  82 CALM      30.48S
STUTTGART      CLEAR     37  30  75 S5        30.48R
MONTICELLO     CLEAR     36  31  82 CALM      30.47F

$$





USA.gov is the U.S. government's official web portal to all federal, state and local government web resources and services.